カタログに戻る

GRUS-3G

運用中科学SSO
NORAD 69878·PAYLOAD·🇨🇦 Canada

打ち上げ Jul 7, 2026 から Vandenberg Space Force Base

Loading…

次のパス (今後24時間)

TLE

最新Source: Space-Track

元期: Sep 14, 2026, 03:54 UTC

1 69878U 26156K   26257.16258915  .00000618  00000-0  66747-4 0  9996
2 69878  97.7431 156.4413 0005293 285.2350  74.8283 14.91803305 10264

AllMySatでGRUS-3Gをリアルタイム追跡

Download on the App Store